Content
SEND FEEDBACK

Daily
Averages
Monthly
Summary
United States of America

ORANGE LAKE, NEW YORK


Home > North America > United States > New York
Elevation: 581 feet     Latitude: 41 47N     Longitude: 074 58W

WEATHER
 
SELECT A DAY
Number of Records: 153,193;   Date Range: 11/1/95 - 12/24/14
 
SHARE

PRINT THIS DATA

[ ← Previous Day ]
WEATHER ALMANAC - AUGUST 18, 2013
[ Next Day → ]
[ °C ]   °F
Weather ElementAverageHighLow
Temperature71.9 °F75.9 °F (1:51 pm)69.1 °F (2:51 am)
Dewpoint55.6 °F62.1 °F (8:51 am)50 °F (3:51 pm)
Humidity57.1 %73 % (7:51 am)41 % (3:51 pm)
Barometer30.21 in30.26 in (6:51 am)30.14 in (6:51 pm)
Wind Speed2.8 mph6.9 mph (3:51 pm)
Weather ElementAverage
Visibility9.8 mi
Wind DirectionNNE (13.9 °)

Weather ElementTotal
Precipitation---
Cooling Degree Days7.5 (Base 65)
Growing Degree Days22.5 (Base 50)
Averaged from 23 records on August 18, 2013
WEATHER CONDITIONS BREAKOUT
WIND DIRECTION BREAKOUT
WEATHER BY HOUR - AUGUST 18, 2013
[ °C ]   °F
Local TimeTemperatureDewpointHumidityBarometerVisibilityWind DirectionWind SpeedGust SpeedPrecipitationEventsConditions
1:51 AM71.1 °F55.0 °F57 %30.25 in10.0 miCalmClear
2:51 AM69.1 °F55.0 °F61 %30.24 in10.0 miCalmClear
3:51 AM70.0 °F54.0 °F57 %30.24 in10.0 miCalmClear
4:51 AM69.1 °F55.0 °F61 %30.24 in10.0 miNNE (20°)3.5 mphClear
5:51 AM69.1 °F57.9 °F68 %30.25 in10.0 miCalmClear
6:51 AM69.1 °F57.0 °F65 %30.26 in10.0 miCalmClear
7:51 AM70.0 °F61.0 °F73 %30.26 in8.0 miVariable3.5 mphClear
8:51 AM71.1 °F62.1 °F73 %30.26 in9.0 miVariable4.6 mphClear
9:51 AM72.0 °F61.0 °F68 %30.25 in9.0 miVariable3.5 mphClear
10:51 AM75.0 °F59.0 °F57 %30.25 in10.0 miNE (50°)4.6 mphClear
11:51 AM73.9 °F59.0 °F59 %30.24 in10.0 miVariable3.5 mphMostly Cloudy
12:51 PM75.0 °F54.0 °F48 %30.25 in10.0 miNE (50°)4.6 mphOvercast
1:51 PM75.9 °F54.0 °F46 %30.21 in10.0 miVariable5.8 mph0.00 inClear
2:51 PM75.0 °F55.0 °F50 %30.19 in10.0 miENE (70°)3.5 mphOvercast
3:51 PM75.0 °F50.0 °F41 %30.17 in10.0 miENE (70°)6.9 mphOvercast
4:51 PM75.0 °F52.0 °F44 %30.15 in10.0 miVariable5.8 mphMostly Cloudy
5:51 PM73.0 °F53.1 °F49 %30.15 in10.0 miENE (60°)4.6 mphMostly Cloudy
6:51 PM73.0 °F51.1 °F46 %30.14 in10.0 miVariable4.6 mphOvercast
7:51 PM72.0 °F50.0 °F46 %30.15 in10.0 miCalmClear
8:51 PM71.1 °F51.1 °F49 %30.14 in10.0 miCalmClear
9:51 PM70.0 °F57.0 °F63 %30.15 in10.0 miCalmClear
10:51 PM69.1 °F57.0 °F65 %30.15 in10.0 miCalmClear
11:51 PM69.1 °F57.9 °F68 %30.14 in10.0 miVariable5.8 mphClear
Hourly data recorded from KNYC, located miles away from Orange Lake, New York







STORIES FROM OUR PARTNERS